This is the latest recevied weather packets stored in our database for station/object KM4LTG. If no packets are shown the sender has not sent any weather packets the latest 1 day(s).
| Time | Temp. | Humidity | Pressure | Rain* | Wind** | Luminosity | Snow |
|---|---|---|---|---|---|---|---|
| 1778013474 | 28.89° C | 63% | 1015.3 hPa | 0 mm | 1.34 m/s, 292° | - | - |
| 1778013220 | 29.44° C | 61% | 1015.3 hPa | 0 mm | 1.34 m/s, 292° | - | - |
| 1778012920 | 28.89° C | 62% | 1015.3 hPa | 0 mm | 1.34 m/s, 292° | - | - |
| 1778012675 | 28.89° C | 62% | 1015.4 hPa | 0 mm | 1.79 m/s, 292° | - | - |
| 1778012385 | 28.89° C | 61% | 1015.3 hPa | 0 mm | 1.34 m/s, 292° | - | - |
| 1778012135 | 28.89° C | 61% | 1015.3 hPa | 0 mm | 1.34 m/s, 292° | - | - |
| 1778011844 | 28.89° C | 61% | 1015.4 hPa | 0 mm | 1.34 m/s, 270° | - | - |
| 1778011600 | 28.89° C | 62% | 1015.5 hPa | 0 mm | 1.34 m/s, 292° | - | - |
| 1778011350 | 28.33° C | 63% | 1015.6 hPa | 0 mm | 1.79 m/s, 292° | - | - |
| 1778011105 | 28.33° C | 63% | 1015.6 hPa | 0 mm | 2.68 m/s, 292° | - | - |
| 1778010865 | 29.44° C | 62% | 1015.6 hPa | 0 mm | 1.79 m/s, 292° | - | - |
| 1778010590 | 30° C | 61% | 1015.5 hPa | 0 mm | 1.79 m/s, 292° | - | - |
| 1778010334 | 30° C | 61% | 1015.5 hPa | 0 mm | 1.79 m/s, 292° | - | - |
| 1778010090 | 30° C | 59% | 1015.7 hPa | 0 mm | 1.79 m/s, 292° | - | - |
| 1778009820 | 30° C | 58% | 1015.5 hPa | 0 mm | 1.34 m/s, 292° | - | - |
| 1778009520 | 30° C | 59% | 1015.7 hPa | 0 mm | 0.89 m/s, 270° | - | - |
| 1778009265 | 29.44° C | 60% | 1015.7 hPa | 0 mm | 0.89 m/s, 292° | - | - |
| 1778008990 | 29.44° C | 60% | 1015.7 hPa | 0 mm | 1.34 m/s, 292° | - | - |
| 1778008715 | 29.44° C | 59% | 1015.9 hPa | 0 mm | 0.89 m/s, 292° | - | - |
| 1778008440 | 30.56° C | 57% | 1015.7 hPa | 0 mm | 0.89 m/s, 270° | - | - |
| 1778008192 | 30° C | 45% | 1015.7 hPa | 0 mm | 0.45 m/s, 315° | - | - |
| 1778007895 | 30° C | 45% | 1015.8 hPa | 0 mm | 0.89 m/s, 68° | - | - |
| 1778007653 | 30° C | 45% | 1015.8 hPa | 0 mm | 0.89 m/s, 68° | - | - |
| 1778007371 | 30° C | 42% | 1015.8 hPa | 0 mm | 1.79 m/s, 68° | - | - |
| 1778007074 | 30° C | 44% | 1015.9 hPa | 0 mm | 0.89 m/s, 68° | - | - |
* Rain latest hour (hover to see other rain measurements)
** Current wind speed in m/s (hover to see current wind gust speed)